CW6666 Weather Reports


Display with metric or nautical units.
time (UTC)temp
F
wind
direction
speed
MPH
gust
MPH
rain 1hr
in
rain 24hr
in
rain mn
in
humidity
%
barometer
mb
20150428074633 82 80 13.0 16.0 0.00 0.01 0.01 90 1007.8
20150428074133 82 71 16.0 16.0 0.00 0.01 0.01 90 1007.7
20150428073634 83 83 12.0 18.0 0.00 0.01 0.01 91 1007.7
20150428073132 83 88 12.0 19.0 0.00 0.01 0.01 90 1007.7
20150428072632 83 66 19.0 19.0 0.00 0.01 0.01 88 1007.5
20150428072133 83 57 14.0 15.0 0.00 0.01 0.01 89 1007.5
20150428071632 83 70 13.0 14.0 0.00 0.01 0.01 89 1007.5
20150428071132 83 49 11.0 14.0 0.00 0.01 0.01 89 1007.3
20150428070632 83 62 11.0 15.0 0.00 0.01 0.01 87 1007.3
20150428070132 83 62 13.0 15.0 0.00 0.01 0.01 89 1007.3
20150428065632 84 83 10.0 15.0 0.00 0.01 0.01 88 1007.2
20150428065131 84 86 10.0 15.0 0.00 0.01 0.01 88 1007.2
20150428064631 84 66 12.0 15.0 0.00 0.01 0.01 87 1007.2
20150428064131 84 58 14.0 15.0 0.00 0.01 0.01 86 1007.3
20150428063631 84 62 10.0 14.0 0.00 0.01 0.01 87 1007.3
20150428063131 84 61 11.0 14.0 0.00 0.01 0.01 87 1007.3
20150428062631 84 71 12.0 14.0 0.00 0.01 0.01 87 1007.3
20150428062131 84 67 10.0 14.0 0.00 0.01 0.01 85 1007.3
20150428061631 84 67 9.0 13.0 0.00 0.01 0.01 85 1007.3
20150428061130 84 63 10.0 13.0 0.00 0.01 0.01 84 1007.2
20150428060630 84 57 11.0 14.0 0.00 0.01 0.01 86 1007.2
20150428060130 84 61 10.0 14.0 0.00 0.01 0.01 87 1007.2
20150428055630 83 56 11.0 17.0 0.00 0.01 0.01 87 1007.3
20150428055130 83 56 13.0 18.0 0.00 0.01 0.01 87 1007.3
20150428054629 83 55 14.0 18.0 0.00 0.01 0.01 88 1007.3
20150428054129 84 67 13.0 18.0 0.00 0.01 0.01 88 1007.3
20150428053630 84 50 16.0 18.0 0.00 0.01 0.01 87 1007.3
20150428053130 85 63 10.0 14.0 0.00 0.01 0.01 84 1007.3
20150428052631 85 74 12.0 14.0 0.00 0.01 0.01 84 1007.3
20150428052129 85 74 10.0 14.0 0.00 0.01 0.01 83 1007.3
20150428051629 86 59 14.0 14.0 0.00 0.01 0.01 84 1007.3
20150428051128 85 63 13.0 15.0 0.00 0.01 0.01 83 1007.4
20150428050629 85 70 10.0 15.0 0.00 0.01 0.01 83 1007.4
20150428050128 85 68 10.0 16.0 0.00 0.01 0.01 84 1007.4
20150428045628 85 59 14.0 16.0 0.00 0.01 0.01 84 1007.3
20150428045128 85 65 13.0 15.0 0.00 0.01 0.01 83 1007.3
20150428044628 85 65 12.0 14.0 0.00 0.01 0.01 85 1007.3
20150428044127 85 66 13.0 14.0 0.00 0.01 0.01 85 1007.3
20150428043629 85 59 11.0 13.0 0.01 0.01 0.01 87 1007.3
20150428043128 84 64 13.0 14.0 0.01 0.01 0.01 87 1007.3
20150428042623 84 69 12.0 14.0 0.01 0.01 0.01 87 1007.6
20150428042122 84 66 11.0 14.0 0.01 0.01 0.01 88 1007.6
20150428041622 84 57 9.0 13.0 0.01 0.01 0.01 86 1007.6
20150428041122 84 67 9.0 13.0 0.01 0.01 0.01 86 1007.9
20150428040621 83 61 11.0 13.0 0.01 0.01 0.01 87 1007.9
20150428040122 83 60 13.0 13.0 0.01 0.01 0.01 88 1007.9
20150428040022 84 90 8.0 11.0 0.01 0.03 0.01 89 1007.8
20150428032749 84 68 13.0 16.0 0.00 0.23 0.00 85 1008.2
20150428031610 84 59 14.0 18.0 0.00 0.23 0.00 84 1008.2
20150428031110 84 58 13.0 20.0 0.00 0.23 0.00 87 1008.4
20150428030610 84 51 18.0 20.0 0.00 0.23 0.00 85 1008.4
20150428030110 85 73 10.0 14.0 0.00 0.23 0.00 87 1008.4
20150428025609 84 61 9.0 14.0 0.00 0.23 0.00 88 1008.6
20150428025110 84 50 10.0 14.0 0.00 0.23 0.00 87 1008.6
20150428024609 84 52 9.0 12.0 0.00 0.23 0.00 88 1008.6
20150428024110 84 46 11.0 13.0 0.00 0.23 0.00 89 1008.8
20150428023609 83 65 11.0 16.0 0.00 0.25 0.00 88 1008.8
20150428023110 83 73 10.0 19.0 0.00 0.25 0.00 86 1008.8
20150428022609 84 53 16.0 19.0 0.00 0.25 0.00 84 1008.9
20150428022109 84 44 14.0 19.0 0.00 0.25 0.00 88 1008.9
20150428021610 84 31 15.0 19.0 0.00 0.25 0.00 86 1008.9
20150428021109 86 52 15.0 15.0 0.00 0.25 0.00 86 1009.2
20150428020609 86 69 10.0 16.0 0.00 0.25 0.00 84 1009.2
20150428020139 86 69 13.0 16.0 0.00 0.25 0.00 82 1009.2
20150428015609 86 66 12.0 15.0 0.00 0.25 0.00 83 1009.3
20150428015110 86 63 12.0 16.0 0.00 0.25 0.00 86 1009.3
20150428014609 86 56 12.0 16.0 0.00 0.25 0.00 84 1009.3
20150428014140 85 60 13.0 16.0 0.00 0.25 0.00 84 1009.3
20150428013607 85 53 15.0 17.0 0.00 0.25 0.00 85 1009.3
20150428013107 85 62 12.0 17.0 0.00 0.25 0.00 85 1009.3
20150428012607 85 58 14.0 17.0 0.00 0.25 0.00 84 1009.7
20150428012107 85 63 12.0 16.0 0.00 0.25 0.00 84 1009.7
20150428011606 86 61 12.0 16.0 0.00 0.25 0.00 84 1009.7
20150428011136 86 56 14.0 15.0 0.00 0.25 0.00 84 1009.8
20150428010637 86 74 12.0 15.0 0.00 0.25 0.00 83 1009.8
20150428010136 85 74 10.0 15.0 0.00 0.25 0.00 84 1009.8
20150428005636 85 62 13.0 14.0 0.00 0.26 0.00 83 1009.9
20150428005136 86 57 12.0 16.0 0.00 0.26 0.00 83 1009.9
20150428004606 85 55 12.0 16.0 0.00 0.26 0.00 82 1009.9
20150428004126 85 55 13.0 15.0 0.00 0.26 0.00 85 1010.0
20150428003605 85 65 13.0 14.0 0.00 0.26 0.00 84 1010.0
20150428003107 85 51 11.0 14.0 0.00 0.26 0.00 85 1010.0
20150428002608 85 44 11.0 16.0 0.00 0.26 0.00 84 1010.1
20150428002137 85 51 12.0 17.0 0.00 0.26 0.00 84 1010.1
20150428001635 85 61 12.0 17.0 0.00 0.26 0.00 83 1010.1
20150428001135 85 65 13.0 17.0 0.00 0.26 0.00 83 1010.2
20150428000634 85 55 14.0 18.0 0.00 0.26 0.00 82 1010.2
20150428000134 85 63 16.0 18.0 0.00 0.26 0.00 83 1010.2
20150427235634 85 68 14.0 17.0 0.00 0.26 0.00 83 1010.2
20150427235134 85 69 14.0 17.0 0.00 0.26 0.00 84 1010.2
20150427234634 85 55 15.0 16.0 0.00 0.26 0.00 84 1010.2
20150427234134 85 69 14.0 16.0 0.00 0.26 0.00 84 1010.2
20150427233634 85 66 12.0 16.0 0.00 0.26 0.00 84 1010.2
20150427233133 84 73 13.0 16.0 0.00 0.26 0.00 85 1010.2
20150427232633 84 65 11.0 16.0 0.00 0.26 0.00 83 1010.0
20150427232133 84 63 13.0 17.0 0.00 0.26 0.00 84 1010.0
20150427231633 85 70 13.0 17.0 0.00 0.26 0.00 84 1010.0
20150427231133 85 71 14.0 18.0 0.00 0.26 0.00 84 1010.0
20150427230633 84 67 15.0 18.0 0.00 0.26 0.00 84 1010.0
20150427230133 84 71 13.0 18.0 0.00 0.26 0.00 85 1010.0
20150427225632 84 51 17.0 18.0 0.00 0.26 0.00 84 1009.9
20150427225132 84 62 15.0 19.0 0.00 0.26 0.00 85 1009.9
20150427224632 84 60 13.0 19.0 0.00 0.26 0.00 84 1009.9
20150427224132 84 62 18.0 19.0 0.00 0.26 0.00 85 1009.9
20150427223632 84 65 15.0 19.0 0.00 0.26 0.00 85 1009.9
20150427223132 84 56 15.0 18.0 0.00 0.26 0.00 85 1009.9
20150427222631 83 65 12.0 19.0 0.00 0.26 0.00 86 1009.8
20150427222132 83 63 17.0 19.0 0.00 0.26 0.00 86 1009.8
20150427221631 83 74 13.0 18.0 0.00 0.26 0.00 86 1009.8
20150427221131 84 70 15.0 18.0 0.00 0.26 0.00 85 1009.8
20150427220631 84 55 16.0 18.0 0.00 0.26 0.00 85 1009.8
20150427220130 84 74 12.0 15.0 0.00 0.26 0.00 86 1009.8
20150427215630 83 77 13.0 16.0 0.00 0.26 0.00 87 1009.8
20150427215131 83 65 14.0 16.0 0.00 0.26 0.00 86 1009.8
20150427214630 83 65 15.0 17.0 0.00 0.26 0.00 86 1009.8
20150427214130 83 63 14.0 17.0 0.00 0.26 0.00 88 1009.5
20150427213630 83 54 14.0 15.0 0.00 0.26 0.00 87 1009.5
20150427213130 83 66 13.0 17.0 0.00 0.26 0.00 88 1009.5
20150427212631 83 57 12.0 17.0 0.00 0.26 0.00 88 1009.3
20150427212129 83 63 13.0 16.0 0.00 0.26 0.00 87 1009.3
20150427211629 83 55 15.0 16.0 0.00 0.26 0.00 87 1009.3
20150427211129 82 55 14.0 16.0 0.00 0.26 0.00 88 1009.2
20150427210629 82 56 14.0 16.0 0.00 0.26 0.00 88 1009.2
20150427210129 82 55 13.0 15.0 0.00 0.26 0.00 88 1009.2
20150427205629 82 59 14.0 16.0 0.00 0.26 0.00 87 1009.0
20150427205129 82 61 12.0 16.0 0.00 0.26 0.00 89 1009.0
20150427204628 82 61 13.0 16.0 0.00 0.26 0.00 88 1009.0
20150427204129 82 58 14.0 16.0 0.00 0.26 0.00 88 1008.9
20150427203628 82 47 13.0 16.0 0.00 0.26 0.00 88 1008.9
20150427203128 82 51 14.0 16.0 0.00 0.26 0.00 88 1008.9
20150427202628 82 54 14.0 16.0 0.00 0.26 0.00 88 1008.8
20150427202127 82 51 14.0 15.0 0.00 0.26 0.00 89 1008.8
20150427201627 81 48 12.0 14.0 0.00 0.26 0.00 90 1008.8
20150427201128 81 35 11.0 14.0 0.00 0.26 0.00 90 1008.9
20150427200627 81 44 13.0 16.0 0.00 0.26 0.00 91 1008.9
20150427200127 81 46 14.0 17.0 0.00 0.26 0.00 91 1008.9
20150427195627 81 51 14.0 17.0 0.00 0.26 0.00 89 1008.8
20150427195127 81 59 14.0 18.0 0.00 0.26 0.00 90 1008.8